STARLINK-2683, 48462

Orbit data source: Space-Track

STARLINK-2683, 48462 is a payload satellite owned by SpaceX/Seattle (US) in LEO that was launched on Sun, 09 May 2021 UTC via an FALCON 9 launch vehicle from the Air Force Eastern Test Range (AFETR). Payload-class satellites include a variety of spacecraft equipped with specific instruments for various scientific and technological missions. These include communications satellites like Starlink; space stations such as the ISS; scientific satellites like the Hubble; Earth observation satellites from companies like Planet Labs, Umbra, and HawkEye 360; GPS; miniature CubeSats for education and research; and military/defense satellites.

Loading next visibility...
Identifier
48462, 2021-040AL
Orbit
LEO
Country
Flag of USUS
Related business
Manufacturer
SpaceX/Seattle
Mission
Operational Commercial Communications
Bus & Motor
STARLINK, Unknown motor
Mass
260 kg wet, ~248 kg dry
Launch date (UTC)
2021-05-09 (5 years ago)
Launch vehicle
FALCON 9
Launch site
Air Force Eastern Test Range (AFETR)
Object type
Payload
Rocket body
Debris
Shape & HBR
Box + 1 Pan, 10.1 m
Radar Cross Section
13.562 m², Large (>1 m²)

Expand to show TLE details & history
Last TLE update: 2 days ago

TLE from 2 days ago
0 STARLINK-2683
1 48462U 21040AL  26171.43526164  .00013078  00000-0  43222-3 0  9994
2 48462  53.1593  73.0762 0001414  89.0847 271.0317 15.31716813282248
Epoch: 2026-06-20T10:26Z
TLE epoch observation values (Epoch: 2026-06-20T10:26:46.605Z)
Latitude
0.00001°
Longitude
7.7321°
Altitude
471.573 km
Speed
7.631 km/s
True Right ascension
04h 52m 18s
True Declination
0° 00' 00"
Sunlit
Object was in daylight at epoch
Visualization orbit readout
Latitude
Unknown
Longitude
Unknown
Altitude
Unknown
Speed
Unknown
Apparent Right ascension
Unknown
Apparent Declination
Unknown
Sunlit
N/A
Visualization observer readout
Local Sidereal Time
21:27:42
Azimuth
Unknown
Elevation
Unknown
Doppler factor
Unknown
Orbital elements
Apogee altitude
471.915 km
Perigee altitude
469.978 km
Semi-major axis
6,849.084 km
Eccentricity
0.00014
Inclination
53.1593°
RAAN
73.0762°
Arg. of periapsis
89.0847°
True anomaly
271.0155°
Mean anomaly
271.0317°
Eccentric anomaly
271.0236°
Mean motion
3.82908 °/min
Orbital period
94.02 mins
BSTAR
0.00043222
Loading maneuver chart data...
Computing Atmospheric mass density...

Documentation

Showing up to 5 results
|